Location: Hurstbourne Priors
(51.2000°N, 1.3667°W)
Time: 21:06:23
(UTC+00:00)

Altair - Pass Details

Date: 14 April 2021
Orbit: 1501 x 1683 km, 47.2° (Epoch: 13 May)

Event Time Altitude Azimuth Distance (km) Brightness Sun altitude
Rises 13:40:05 0° 287° (WNW) 4,709 10.2 44.1°
Reaches altitude 10° 13:43:32 10° 278° (W) 3,702 9.9 43.8°
Maximum altitude 13:51:25 33° 219° (SW) 2,334 10.9 43.1°
Drops below altitude 10° 13:59:12 10° 160° (SSE) 3,643 9.9 42.4°
Sets 14:02:35 0° 151° (SSE) 4,625 10.2 42.0°
